| time (UTC) | temp C | wind direction | speed KPH | gust KPH | rain 1hr cm | rain 24hr cm | rain mn cm | humidity % | barometer mb |
| 20260509091344 | 21 | 68 | 1.6 | 4.8 | 0.00 | 0.00 | 0.00 | 34 | 1016.6 |
| 20260509090344 | 21 | 225 | 1.6 | 3.2 | 0.00 | 0.00 | 0.00 | 34 | 1016.5 |
| 20260509085344 | 22 | 0 | 0.0 | 3.2 | 0.00 | 0.00 | 0.00 | 32 | 1016.5 |
| 20260509084344 | 22 | 270 | 0.0 | 1.6 | 0.00 | 0.00 | 0.00 | 29 | 1016.4 |
| 20260509083344 | 22 | 0 | 1.6 | 8.0 | 0.00 | 0.00 | 0.00 | 28 | 1016.3 |
| 20260509082344 | 23 | 225 | 1.6 | 4.8 | 0.00 | 0.00 | 0.00 | 27 | 1016.2 |
| 20260509081344 | 22 | 225 | 3.2 | 6.4 | 0.00 | 0.00 | 0.00 | 30 | 1016.2 |
| 20260509080345 | 23 | 180 | 0.0 | 4.8 | 0.00 | 0.00 | 0.00 | 29 | 1016.0 |
| 20260509075345 | 23 | 270 | 1.6 | 3.2 | 0.00 | 0.00 | 0.00 | 29 | 1015.9 |
| 20260509074345 | 23 | 0 | 0.0 | 3.2 | 0.00 | 0.00 | 0.00 | 30 | 1015.9 |
| 20260509073345 | 23 | 225 | 0.0 | 8.0 | 0.00 | 0.00 | 0.00 | 29 | 1015.9 |
| 20260509072345 | 23 | 315 | 0.0 | 6.4 | 0.00 | 0.00 | 0.00 | 31 | 1015.9 |
| 20260509071346 | 24 | 270 | 1.6 | 6.4 | 0.00 | 0.00 | 0.00 | 31 | 1015.9 |
| 20260509070346 | 25 | 0 | 0.0 | 3.2 | 0.00 | 0.00 | 0.00 | 31 | 1015.8 |
| 20260509065346 | 24 | 315 | 1.6 | 4.8 | 0.00 | 0.00 | 0.00 | 31 | 1015.9 |
| 20260509064346 | 24 | 270 | 1.6 | 4.8 | 0.00 | 0.00 | 0.00 | 31 | 1015.9 |
| 20260509063346 | 25 | 270 | 3.2 | 12.9 | 0.00 | 0.00 | 0.00 | 31 | 1016.0 |
| 20260509062346 | 25 | 270 | 1.6 | 3.2 | 0.00 | 0.00 | 0.00 | 32 | 1015.9 |
| 20260509061346 | 25 | 270 | 3.2 | 12.9 | 0.00 | 0.00 | 0.00 | 32 | 1015.9 |
| 20260509060345 | 26 | 315 | 1.6 | 8.0 | 0.00 | 0.00 | 0.00 | 32 | 1016.0 |
| 20260509055345 | 27 | 135 | 1.6 | 19.3 | 0.00 | 0.00 | 0.00 | 32 | 1015.9 |
| 20260509054345 | 28 | 180 | 3.2 | 8.0 | 0.00 | 0.00 | 0.00 | 26 | 1016.0 |
| 20260509053345 | 28 | 315 | 0.0 | 3.2 | 0.00 | 0.00 | 0.00 | 31 | 1016.1 |
| 20260509052344 | 30 | 315 | 1.6 | 6.4 | 0.00 | 0.00 | 0.00 | 26 | 1016.1 |
| 20260509051344 | 33 | 270 | 0.0 | 4.8 | 0.00 | 0.00 | 0.00 | 23 | 1016.3 |
| 20260509050343 | 33 | 0 | 0.0 | 4.8 | 0.00 | 0.00 | 0.00 | 24 | 1016.2 |
| 20260509045342 | 32 | 315 | 1.6 | 4.8 | 0.00 | 0.00 | 0.00 | 14 | 1016.4 |
| 20260509044342 | 33 | 203 | 1.6 | 4.8 | 0.00 | 0.00 | 0.00 | 21 | 1016.6 |
| 20260509043341 | 32 | 0 | 1.6 | 3.2 | 0.00 | 0.00 | 0.00 | 22 | 1016.9 |
| 20260509042340 | 31 | 135 | 1.6 | 8.0 | 0.00 | 0.00 | 0.00 | 20 | 1017.0 |
| 20260509041340 | 28 | 293 | 0.0 | 6.4 | 0.00 | 0.00 | 0.00 | 33 | 1017.2 |
| 20260509040339 | 30 | 315 | 3.2 | 8.0 | 0.00 | 0.00 | 0.00 | 25 | 1017.3 |
| 20260509035339 | 30 | 225 | 0.0 | 4.8 | 0.00 | 0.00 | 0.00 | 27 | 1017.4 |
| 20260509034338 | 30 | 0 | 0.0 | 4.8 | 0.00 | 0.00 | 0.00 | 25 | 1017.5 |
| 20260509033337 | 30 | 180 | 3.2 | 8.0 | 0.00 | 0.00 | 0.00 | 20 | 1017.5 |
| 20260509032337 | 31 | 315 | 1.6 | 3.2 | 0.00 | 0.00 | 0.00 | 21 | 1017.5 |
| 20260509031336 | 30 | 225 | 0.0 | 4.8 | 0.00 | 0.00 | 0.00 | 25 | 1017.6 |
| 20260509030336 | 31 | 180 | 3.2 | 8.0 | 0.00 | 0.00 | 0.00 | 28 | 1017.6 |
| 20260509025335 | 28 | 0 | 1.6 | 6.4 | 0.00 | 0.00 | 0.00 | 30 | 1017.8 |
| 20260509024335 | 28 | 135 | 0.0 | 4.8 | 0.00 | 0.00 | 0.00 | 34 | 1017.9 |
| 20260509023334 | 28 | 135 | 0.0 | 1.6 | 0.00 | 0.00 | 0.00 | 36 | 1018.1 |
| 20260509022334 | 25 | 203 | 3.2 | 8.0 | 0.00 | 0.00 | 0.00 | 34 | 1018.3 |
| 20260509021334 | 26 | 338 | 1.6 | 4.8 | 0.00 | 0.00 | 0.00 | 34 | 1018.3 |
| 20260509020334 | 23 | 338 | 0.0 | 4.8 | 0.00 | 0.00 | 0.00 | 28 | 1018.5 |
| 20260509015333 | 24 | 315 | 0.0 | 3.2 | 0.00 | 0.00 | 0.00 | 34 | 1018.5 |
| 20260509014333 | 24 | 0 | 1.6 | 3.2 | 0.00 | 0.00 | 0.00 | 35 | 1018.6 |
| 20260509013334 | 22 | 315 | 0.0 | 3.2 | 0.00 | 0.00 | 0.00 | 44 | 1018.7 |
| 20260509012334 | 21 | 0 | 1.6 | 3.2 | 0.00 | 0.00 | 0.00 | 45 | 1018.7 |
| 20260509011334 | 21 | 0 | 0.0 | 3.2 | 0.00 | 0.00 | 0.00 | 49 | 1018.7 |
| 20260509010334 | 22 | 315 | 0.0 | 3.2 | 0.00 | 0.00 | 0.00 | 46 | 1018.8 |
| 20260509005334 | 22 | 315 | 0.0 | 4.8 | 0.00 | 0.00 | 0.00 | 46 | 1018.9 |
| 20260509004334 | 22 | 45 | 0.0 | 3.2 | 0.00 | 0.00 | 0.00 | 46 | 1018.9 |
| 20260509003334 | 21 | 0 | 0.0 | 4.8 | 0.00 | 0.00 | 0.00 | 53 | 1019.1 |
| 20260509002334 | 20 | 315 | 0.0 | 4.8 | 0.00 | 0.00 | 0.00 | 53 | 1019.0 |
| 20260509001334 | 20 | 315 | 1.6 | 3.2 | 0.00 | 0.00 | 0.00 | 52 | 1019.1 |
| 20260509000335 | 18 | 0 | 0.0 | 4.8 | 0.00 | 0.00 | 0.00 | 53 | 1019.1 |
| 20260508235335 | 18 | 315 | 1.6 | 3.2 | 0.00 | 0.00 | 0.00 | 57 | 1019.1 |
| 20260508234335 | 19 | 90 | 0.0 | 3.2 | 0.00 | 0.00 | 0.00 | 51 | 1018.9 |
| 20260508233336 | 20 | 315 | 0.0 | 3.2 | 0.00 | 0.00 | 0.00 | 58 | 1019.1 |
| 20260508232336 | 17 | 270 | 0.0 | 3.2 | 0.00 | 0.00 | 0.00 | 66 | 1019.1 |
| 20260508231337 | 17 | 315 | 0.0 | 3.2 | 0.00 | 0.00 | 0.00 | 66 | 1019.1 |
| 20260508230337 | 17 | 225 | 0.0 | 3.2 | 0.00 | 0.00 | 0.00 | 69 | 1019.2 |
| 20260508225338 | 16 | 338 | 0.0 | 1.6 | 0.00 | 0.00 | 0.00 | 70 | 1019.1 |
| 20260508224338 | 15 | 315 | 0.0 | 1.6 | 0.00 | 0.00 | 0.00 | 73 | 1019.0 |
| 20260508223339 | 14 | 315 | 0.0 | 3.2 | 0.00 | 0.00 | 0.00 | 75 | 1018.9 |
| 20260508222339 | 14 | 315 | 0.0 | 3.2 | 0.00 | 0.00 | 0.00 | 76 | 1018.7 |
| 20260508221340 | 14 | 315 | 0.0 | 1.6 | 0.00 | 0.00 | 0.00 | 73 | 1018.6 |
| 20260508220341 | 13 | 315 | 0.0 | 1.6 | 0.00 | 0.00 | 0.00 | 77 | 1018.6 |
| 20260508215342 | 14 | 315 | 0.0 | 0.0 | 0.00 | 0.00 | 0.00 | 75 | 1018.5 |
| 20260508214342 | 14 | 135 | 0.0 | 0.0 | 0.00 | 0.00 | 0.00 | 71 | 1018.5 |
| 20260508213343 | 13 | 0 | 0.0 | 0.0 | 0.00 | 0.00 | 0.00 | 75 | 1018.3 |
| 20260508212344 | 12 | 315 | 0.0 | 0.0 | 0.00 | 0.00 | 0.00 | 79 | 1018.1 |
| 20260508211345 | 12 | 180 | 0.0 | 1.6 | 0.00 | 0.00 | 0.00 | 79 | 1018.1 |
| 20260508210346 | 11 | 180 | 0.0 | 3.2 | 0.00 | 0.00 | 0.00 | 80 | 1017.9 |
| 20260508205347 | 11 | 180 | 0.0 | 0.0 | 0.00 | 0.00 | 0.00 | 80 | 1017.9 |
| 20260508204348 | 11 | 135 | 0.0 | 1.6 | 0.00 | 0.00 | 0.00 | 81 | 1017.6 |
| 20260508203350 | 11 | 45 | 0.0 | 0.0 | 0.00 | 0.00 | 0.00 | 81 | 1017.4 |
| 20260508202351 | 11 | 135 | 0.0 | 0.0 | 0.00 | 0.00 | 0.00 | 80 | 1017.2 |
| 20260508201351 | 11 | 90 | 0.0 | 0.0 | 0.00 | 0.00 | 0.00 | 80 | 1017.1 |
| 20260508200353 | 11 | 45 | 0.0 | 0.0 | 0.00 | 0.00 | 0.00 | 81 | 1017.1 |
| 20260508195354 | 11 | 0 | 0.0 | 1.6 | 0.00 | 0.00 | 0.00 | 80 | 1017.1 |
| 20260508194355 | 11 | 45 | 0.0 | 0.0 | 0.00 | 0.00 | 0.00 | 80 | 1017.1 |
| 20260508193356 | 11 | 135 | 0.0 | 1.6 | 0.00 | 0.00 | 0.00 | 79 | 1017.0 |
| 20260508192357 | 11 | 0 | 0.0 | 1.6 | 0.00 | 0.00 | 0.00 | 78 | 1016.8 |
| 20260508191358 | 11 | 45 | 0.0 | 0.0 | 0.00 | 0.00 | 0.00 | 77 | 1016.9 |
| 20260508190359 | 12 | 45 | 0.0 | 3.2 | 0.00 | 0.00 | 0.00 | 76 | 1017.0 |
| 20260508185400 | 12 | 315 | 0.0 | 1.6 | 0.00 | 0.00 | 0.00 | 76 | 1016.9 |
| 20260508184401 | 12 | 45 | 0.0 | 1.6 | 0.00 | 0.00 | 0.00 | 74 | 1016.9 |
| 20260508183403 | 12 | 135 | 1.6 | 4.8 | 0.00 | 0.00 | 0.00 | 70 | 1016.8 |
| 20260508182404 | 12 | 135 | 1.6 | 6.4 | 0.00 | 0.00 | 0.00 | 68 | 1016.7 |
| 20260508181405 | 13 | 180 | 3.2 | 4.8 | 0.00 | 0.00 | 0.00 | 65 | 1016.6 |
| 20260508180406 | 13 | 90 | 0.0 | 1.6 | 0.00 | 0.00 | 0.00 | 63 | 1016.4 |
| 20260508175407 | 13 | 180 | 3.2 | 6.4 | 0.00 | 0.00 | 0.00 | 64 | 1016.4 |
| 20260508174408 | 13 | 180 | 3.2 | 6.4 | 0.00 | 0.00 | 0.00 | 65 | 1016.4 |
| 20260508173409 | 13 | 180 | 3.2 | 4.8 | 0.00 | 0.00 | 0.00 | 66 | 1016.4 |
| 20260508172411 | 13 | 203 | 3.2 | 8.0 | 0.00 | 0.00 | 0.00 | 65 | 1016.4 |
| 20260508171412 | 13 | 203 | 3.2 | 8.0 | 0.00 | 0.00 | 0.00 | 65 | 1016.5 |
| 20260508170413 | 13 | 180 | 4.8 | 11.3 | 0.00 | 0.00 | 0.00 | 65 | 1016.7 |
| 20260508165414 | 13 | 180 | 3.2 | 9.7 | 0.00 | 0.00 | 0.00 | 65 | 1016.8 |
| 20260508164415 | 13 | 180 | 0.0 | 4.8 | 0.00 | 0.00 | 0.00 | 68 | 1016.8 |
| 20260508163416 | 13 | 180 | 1.6 | 6.4 | 0.00 | 0.00 | 0.00 | 67 | 1016.7 |
| 20260508162417 | 12 | 225 | 3.2 | 8.0 | 0.00 | 0.00 | 0.00 | 68 | 1016.7 |
| 20260508161419 | 12 | 180 | 1.6 | 8.0 | 0.00 | 0.00 | 0.00 | 70 | 1016.8 |
| 20260508160420 | 12 | 180 | 1.6 | 4.8 | 0.00 | 0.00 | 0.00 | 71 | 1016.7 |
| 20260508155421 | 12 | 180 | 3.2 | 6.4 | 0.00 | 0.00 | 0.00 | 70 | 1016.6 |
| 20260508154422 | 12 | 180 | 3.2 | 8.0 | 0.00 | 0.00 | 0.00 | 70 | 1016.7 |
| 20260508153423 | 13 | 180 | 1.6 | 4.8 | 0.00 | 0.00 | 0.00 | 70 | 1016.7 |
| 20260508152424 | 13 | 180 | 1.6 | 4.8 | 0.00 | 0.00 | 0.00 | 68 | 1016.8 |
| 20260508151425 | 13 | 180 | 3.2 | 8.0 | 0.00 | 0.00 | 0.00 | 69 | 1016.7 |
| 20260508150426 | 13 | 180 | 1.6 | 3.2 | 0.00 | 0.00 | 0.00 | 69 | 1016.7 |
| 20260508145427 | 14 | 180 | 1.6 | 3.2 | 0.00 | 0.00 | 0.00 | 66 | 1016.7 |
| 20260508144428 | 14 | 180 | 1.6 | 3.2 | 0.00 | 0.00 | 0.00 | 67 | 1016.8 |
| 20260508143428 | 14 | 135 | 0.0 | 3.2 | 0.00 | 0.00 | 0.00 | 67 | 1016.7 |
| 20260508142429 | 14 | 135 | 0.0 | 3.2 | 0.00 | 0.00 | 0.00 | 65 | 1016.7 |
| 20260508141430 | 14 | 180 | 0.0 | 1.6 | 0.00 | 0.00 | 0.00 | 68 | 1016.7 |
| 20260508140432 | 15 | 180 | 1.6 | 3.2 | 0.00 | 0.00 | 0.00 | 67 | 1016.7 |
| 20260508135432 | 15 | 45 | 0.0 | 3.2 | 0.00 | 0.00 | 0.00 | 66 | 1016.8 |
| 20260508134433 | 14 | 180 | 0.0 | 3.2 | 0.00 | 0.00 | 0.00 | 70 | 1016.7 |
| 20260508133434 | 14 | 180 | 0.0 | 3.2 | 0.00 | 0.00 | 0.00 | 71 | 1016.7 |
| 20260508132435 | 15 | 180 | 0.0 | 0.0 | 0.00 | 0.00 | 0.00 | 69 | 1016.6 |
| 20260508131435 | 15 | 225 | 0.0 | 0.0 | 0.00 | 0.00 | 0.00 | 69 | 1016.7 |
| 20260508130436 | 15 | 180 | 0.0 | 0.0 | 0.00 | 0.00 | 0.00 | 67 | 1016.7 |
| 20260508125437 | 15 | 225 | 0.0 | 0.0 | 0.00 | 0.00 | 0.00 | 65 | 1016.5 |
| 20260508124438 | 15 | 225 | 0.0 | 0.0 | 0.00 | 0.00 | 0.00 | 65 | 1016.5 |
| 20260508123438 | 15 | 135 | 0.0 | 1.6 | 0.00 | 0.00 | 0.00 | 65 | 1016.2 |
| 20260508122439 | 15 | 315 | 0.0 | 0.0 | 0.00 | 0.00 | 0.00 | 64 | 1016.0 |
| 20260508121440 | 15 | 0 | 0.0 | 0.0 | 0.00 | 0.00 | 0.00 | 64 | 1015.9 |
| 20260508120441 | 16 | 180 | 0.0 | 0.0 | 0.00 | 0.00 | 0.00 | 65 | 1015.8 |
| 20260508115441 | 16 | 270 | 0.0 | 0.0 | 0.00 | 0.00 | 0.00 | 65 | 1015.6 |
| 20260508114442 | 16 | 315 | 0.0 | 1.6 | 0.00 | 0.00 | 0.00 | 65 | 1015.5 |
| 20260508113443 | 16 | 270 | 0.0 | 4.8 | 0.00 | 0.00 | 0.00 | 65 | 1015.5 |
| 20260508112444 | 16 | 315 | 0.0 | 3.2 | 0.00 | 0.00 | 0.00 | 65 | 1015.4 |
| 20260508111445 | 16 | 180 | 0.0 | 1.6 | 0.00 | 0.00 | 0.00 | 65 | 1015.2 |
| 20260508110445 | 16 | 225 | 0.0 | 1.6 | 0.00 | 0.00 | 0.00 | 65 | 1014.9 |
| 20260508105446 | 16 | 315 | 0.0 | 1.6 | 0.00 | 0.00 | 0.00 | 64 | 1014.7 |
| 20260508104447 | 17 | 225 | 1.6 | 4.8 | 0.00 | 0.00 | 0.00 | 63 | 1014.6 |
| 20260508103448 | 17 | 270 | 0.0 | 3.2 | 0.00 | 0.00 | 0.00 | 63 | 1014.4 |
| 20260508102448 | 17 | 270 | 0.0 | 3.2 | 0.00 | 0.00 | 0.00 | 62 | 1014.1 |
| 20260508101449 | 18 | 270 | 0.0 | 3.2 | 0.00 | 0.00 | 0.00 | 62 | 1013.9 |
| 20260508100450 | 18 | 270 | 0.0 | 3.2 | 0.00 | 0.00 | 0.00 | 61 | 1013.6 |
| 20260508095450 | 18 | 0 | 0.0 | 3.2 | 0.00 | 0.00 | 0.00 | 61 | 1013.4 |
| 20260508094451 | 18 | 270 | 1.6 | 3.2 | 0.00 | 0.00 | 0.00 | 60 | 1013.2 |
| 20260508093451 | 20 | 270 | 0.0 | 3.2 | 0.00 | 0.00 | 0.00 | 58 | 1013.0 |
| 20260508092452 | 20 | 0 | 0.0 | 3.2 | 0.00 | 0.00 | 0.00 | 57 | 1012.8 |
| 20260508091452 | 20 | 270 | 0.0 | 4.8 | 0.00 | 0.00 | 0.00 | 57 | 1012.7 |